Tracking 19832 objects as of 25-Aug-2019
HD Live streaming from Space Station
objects crossing your sky now

CZ-2D DEB

Track CZ-2D DEB now!
10-day predictions


NORAD ID: 38301
Int'l Code: 2010-027F
Perigee: 549.5 km
Apogee: 796.9 km
Inclination: 97.9 °
Period: 98.1 minutes
Semi major axis: 7044 km
RCS: 0.0012 m2 (small)
Launch date: June 15, 2010
Source: People's Republic of China (PRC)
Launch site: Jiuquan Satellite Launch Center, China (JSC)

Note: This is SATELLITE DEBRIS
aabbcc
Your satellite tracking list
Your tracking list is empty




NASA's NSSDC Master Catalog

Two Line Element Set (TLE):
1 38301U 10027F   19236.70625834 +.00000512 +00000-0 +77600-4 0  9993
2 38301 097.8856 139.3135 0175580 066.2785 323.5702 14.68434742479336
Source of the keplerian elements: AFSPC